Location: *
(43.7000°S, 168.7000°W)
Time: 14:56:20
(UTC+00:00)

Cosmos 1271 Rocket - Pass Details

Date: 07 July 2020
Orbit: 497 x 546 km, 81.2° (Epoch: 04 August)

Event Time Altitude Azimuth Distance (km) Brightness Sun altitude
Rises 17:17:17 0° 330° (NNW) 2,592 6.1 -15.8°
Reaches altitude 10° 17:19:32 10° 320° (NW) 1,720 5.1 -15.4°
Maximum altitude 17:22:59 33° 254° (WSW) 882 3.3 -14.8°
Drops below altitude 10° 17:26:30 10° 188° (S) 1,762 5.1 -14.2°
Sets 17:28:50 0° 178° (S) 2,666 6.2 -13.8°
